Погода в Семенове

Россия / Нижегородская область     57°20′10″N   45°42′51″E
темп.,
°C
ветер,
м/с
пор.,
м/с
влажн.,
%
обл.,
%
осадки,
мм/ч
давл.,
гПа
погр.,
м
6 марта, сб
сб600:00−12с229799 0.3 100942
03:00−14зсз2397100 0.3 101263
06:00−17зсз239990 0.1 101268
09:00−15з249476 0.1 1014229
12:00−10з248683 0.0 1014637
15:00−9з348592 0.1 1012791
18:00−12з2295100 0.1 101220
21:00−14зюз2397100 0.3 101279
7 марта, вс
вс700:00−17зюз229879 0.0 101120
03:00−18ююз229970 0.0 101125
06:00−19ю239941 0.0 100960
09:00−14ю479547 0.0 1007251
12:00−8ю5108999 0.0 1004545
15:00−7ююв61192100 0.2 1001757
18:00−7ююв61294100 0.8 997913
21:00−7ююв61294100 1.5 994867
8 марта, пн
пн800:00−6юв51194100 0.9 990739
03:00−7вюв4109599 1.4 989455
06:00−8ю3796100 0.4 988286
09:00−7юз2494100 0.6 990336
12:00−5з2494100 1.2 991412
15:00−4зсз2494100 2.3 993395
18:00−6с3795100 0.9 995396
21:00−10ссз389598 1.1 997324
9 марта, вт
вт900:00−12ссз389694 0.1 999309
03:00−14ссз389697 0.1 1002269
06:00−14ссз389595 0.1 1005339
09:00−14ссз369295 0.2 1007432
12:00−12сз3588100 0.1 1009631
15:00−11сз3587100 0.2 1010826
18:00−14сз3794100 0.1 1011354
21:00−18сз2698100 0.2 1013139
10 марта, ср
ср1000:00−21ссз239989 0.0 101475
03:00−24ссз2310085 0.1 101546
06:00−26ссз239987 0.0 101644
09:00−23с249556 0.0 1017243
12:00−18ссз238478 0.0 1017572
15:00−16ссз238589 0.1 1017786
18:00−20ссз2296100 0.1 101720
21:00−24с1199100 0.1 101820